Change the Weather History Date:

Monday, January 20, 2014

  Actual Average Record
Temperature  
Mean Temperature 75 °F -  
Max Temperature 82 °F - - ()
Min Temperature 68 °F - - ()
Cooling Degree Days 10    
Growing Degree Days 25 (Base 50)    
Moisture  
Dew Point 68 °F    
Average Humidity 77    
Maximum Humidity 94    
Minimum Humidity 52    
Precipitation  
Precipitation 0.00 in - - ()
Sea Level Pressure  
Sea Level Pressure 29.77 in    
Wind  
Wind Speed 8 mph ()    
Max Wind Speed 20 mph    
Max Gust Speed -    
Visibility 6.7 miles    
Events      
T = Trace of Precipitation, MM = Missing Value Source: Averaged Metar Reports

Daily Weather History Graph

Daily Weather History Graph

Search for Another Location

Airport or City:

Trip Planner

Search our weather history database for the weather conditions in past years. The results will help you decide how hot, cold, wet, or windy it might be!

Date:

Astronomy

Jan. 20, 2014 Rise Set
Actual Time 6:04 AM AEDT 8:02 PM AEDT
Civil Twilight 5:36 AM AEDT 8:30 PM AEDT
Nautical Twilight 5:03 AM AEDT 9:03 PM AEDT
Astronomical Twilight 4:27 AM AEDT 9:38 PM AEDT
Moon 10:04 PM AEDT (1/20) 9:26 AM AEDT (1/20)
Length of Visible Light 14h 53m
Length of Day
13h 58m
Waning Gibbous, 87% of the Moon is Illuminated
Jan 20
Waning Gibbous
Jan 24
Last Quarter
Jan 31
New
Feb 7
First Quarter
Feb 15
Full

Hourly Weather History & Observations

Time (AEDT) Temp. Heat Index Dew Point Humidity Pressure Visibility Wind Dir Wind Speed Gust Speed Precip Events Conditions
12:00 AM 71 °F - 69 °F 89% 29.81 in - SSE 5.8 mph - -   Overcast
12:00 AM 69.8 °F - 68.0 °F 94% 29.80 in 6.2 mi SSE 5.8 mph - N/A   Mostly Cloudy
12:30 AM 69.8 °F - 68.0 °F 94% 29.80 in 6.2 mi SSW 1.2 mph - N/A   Scattered Clouds
1:00 AM 69.8 °F - 68.0 °F 94% 29.80 in 6.2 mi South 5.8 mph - N/A   Scattered Clouds
1:30 AM 69.8 °F - 68.0 °F 94% 29.80 in 6.2 mi South 5.8 mph - N/A   Scattered Clouds
2:00 AM 70 °F - 69 °F 94% 29.78 in - South 5.8 mph - -  
2:00 AM 69.8 °F - 68.0 °F 94% 29.77 in 6.2 mi South 5.8 mph - N/A   Mostly Cloudy
2:30 AM 69.8 °F - 68.0 °F 94% 29.77 in 6.2 mi South 4.6 mph - N/A   Unknown
3:00 AM 70 °F - 68 °F 92% 29.77 in - South 4.6 mph - -  
3:00 AM 69.8 °F - 68.0 °F 94% 29.77 in 6.2 mi South 4.6 mph - N/A   Unknown
3:30 AM 69.8 °F - 68.0 °F 94% 29.77 in 6.2 mi South 8.1 mph - N/A   Unknown
4:00 AM 69.8 °F - 68.0 °F 94% 29.74 in 6.2 mi South 5.8 mph - N/A   Unknown
4:30 AM 69.8 °F - 68.0 °F 94% 29.74 in 6.2 mi South 6.9 mph - N/A   Unknown
5:00 AM 70 °F - 68 °F 92% 29.77 in - South 4.6 mph - -  
5:00 AM 69.8 °F - 68.0 °F 94% 29.77 in 6.2 mi South 4.6 mph - N/A   Unknown
5:30 AM 69.8 °F - 68.0 °F 94% 29.77 in 6.2 mi SSE 5.8 mph - N/A   Unknown
6:00 AM 70 °F - 68 °F 93% 29.77 in - SSE 5.8 mph - -   Overcast
6:00 AM 69.8 °F - 68.0 °F 94% 29.77 in 6.2 mi SSE 5.8 mph - N/A   Mostly Cloudy
6:30 AM 69.8 °F - 68.0 °F 94% 29.77 in 6.2 mi SE 5.8 mph - N/A   Scattered Clouds
7:00 AM 69.8 °F - 68.0 °F 94% 29.77 in 6.2 mi SE 4.6 mph - N/A   Partly Cloudy
7:30 AM 71.6 °F - 68.0 °F 88% 29.77 in 6.2 mi South 4.6 mph - N/A   Partly Cloudy
8:00 AM 74 °F - 69 °F 78% 29.79 in - South 4.6 mph - -  
8:00 AM 73.4 °F - 68.0 °F 83% 29.77 in 6.2 mi South 4.6 mph - N/A   Partly Cloudy
8:30 AM 77.0 °F - 68.0 °F 74% 29.77 in 6.2 mi SE 3.5 mph - N/A   Partly Cloudy
9:00 AM 78 °F - 65 °F 56% 29.79 in 12 mi East 5.8 mph - -   Partly Cloudy
9:00 AM 78.8 °F - 64.4 °F 61% 29.77 in 6.2 mi East 5.8 mph - N/A   Scattered Clouds
10:02 AM 78.8 °F - 68.0 °F 69% 29.77 in 6.2 mi South 12.7 mph - N/A   Scattered Clouds
10:30 AM 78.8 °F - 68.0 °F 69% 29.77 in 6.2 mi SSE 11.5 mph - N/A   Scattered Clouds
11:00 AM 79 °F - 67 °F 60% 29.78 in - SSE 11.5 mph - -  
11:00 AM 78.8 °F - 68.0 °F 69% 29.77 in 6.2 mi SSE 11.5 mph - N/A   Scattered Clouds
11:30 AM 80.6 °F 83.2 °F 68.0 °F 65% 29.77 in 6.2 mi SSE 13.8 mph - N/A   Scattered Clouds
12:00 PM 80 °F - 67 °F 57% 29.77 in 16 mi SSE 15.0 mph - -   Partly Cloudy
12:00 PM 80.6 °F 83.2 °F 68.0 °F 65% 29.74 in 6.2 mi SSE 15.0 mph - N/A   Scattered Clouds
12:30 PM 80.6 °F 83.2 °F 68.0 °F 65% 29.74 in 6.2 mi SSE 18.4 mph - N/A   Scattered Clouds
1:00 PM 78.8 °F - 68.0 °F 69% 29.74 in 6.2 mi SSE 18.4 mph - N/A   Scattered Clouds
1:30 PM 80.6 °F 82.7 °F 66.2 °F 61% 29.74 in 6.2 mi SSE 18.4 mph - N/A   Partly Cloudy
2:00 PM 82 °F - 67 °F 52% 29.75 in - SSE 19.6 mph - -  
2:00 PM 82.4 °F 85.4 °F 68.0 °F 62% 29.74 in 6.2 mi SSE 19.6 mph - N/A   Scattered Clouds
2:30 PM 80.6 °F 82.7 °F 66.2 °F 61% 29.74 in 6.2 mi SE 19.6 mph - N/A   Scattered Clouds
3:00 PM 80 °F - 66 °F 54% 29.75 in 16 mi SE 19.6 mph - -   Partly Cloudy
3:00 PM 80.6 °F 82.7 °F 66.2 °F 61% 29.74 in 6.2 mi SE 19.6 mph - N/A   Scattered Clouds
3:30 PM 80.6 °F 83.2 °F 68.0 °F 65% 29.74 in 6.2 mi SE 18.4 mph - N/A   Scattered Clouds
4:00 PM 80.6 °F 83.2 °F 68.0 °F 65% 29.74 in 6.2 mi ESE 17.3 mph - N/A   Scattered Clouds
4:30 PM 80.6 °F 82.7 °F 66.2 °F 61% 29.71 in 6.2 mi SE 18.4 mph - N/A   Partly Cloudy
5:00 PM 80 °F - 67 °F 56% 29.72 in - ESE 17.3 mph - -  
5:00 PM 78.8 °F - 66.2 °F 65% 29.71 in 6.2 mi ESE 17.3 mph - N/A   Unknown
5:30 PM 78.8 °F - 68.0 °F 69% 29.71 in 6.2 mi SE 19.6 mph - N/A   Scattered Clouds
6:00 PM 78 °F - 67 °F 61% 29.74 in - SE 17.3 mph - -  
6:00 PM 78.8 °F - 68.0 °F 69% 29.71 in 6.2 mi SE 17.3 mph - N/A   Unknown
6:30 PM 77.0 °F - 66.2 °F 69% 29.74 in 6.2 mi ESE 15.0 mph - N/A   Unknown
7:00 PM 77.0 °F - 68.0 °F 74% 29.74 in 6.2 mi ESE 13.8 mph - N/A   Mostly Cloudy
7:30 PM 75.2 °F - 68.0 °F 78% 29.77 in 6.2 mi ESE 10.4 mph - N/A   Mostly Cloudy
8:00 PM 74 °F - 67 °F 74% 29.78 in - ESE 10.4 mph - -  
8:00 PM 75.2 °F - 68.0 °F 78% 29.77 in 6.2 mi ESE 10.4 mph - N/A   Mostly Cloudy
8:30 PM 73.4 °F - 68.0 °F 83% 29.77 in 6.2 mi ESE 8.1 mph - N/A   Mostly Cloudy
9:00 PM 74 °F - 67 °F 74% 29.81 in - ESE 8.1 mph - -   Overcast
9:00 PM 75.2 °F - 68.0 °F 78% 29.80 in 6.2 mi ESE 8.1 mph - N/A   Overcast
9:30 PM 75.2 °F - 68.0 °F 78% 29.80 in 6.2 mi ESE 10.4 mph - N/A   Overcast
10:00 PM 75.2 °F - 68.0 °F 78% 29.80 in 6.2 mi ESE 9.2 mph - N/A   Overcast
10:30 PM 75.2 °F - 66.2 °F 73% 29.80 in 6.2 mi ESE 10.4 mph - N/A   Overcast
11:00 PM 74 °F - 67 °F 74% 29.81 in - ESE 9.2 mph - -  
11:00 PM 75.2 °F - 68.0 °F 78% 29.80 in 6.2 mi ESE 9.2 mph - N/A   Overcast
11:30 PM 75.2 °F - 68.0 °F 78% 29.80 in 6.2 mi ESE 9.2 mph - N/A   Overcast